Time,TemperatureF,DewpointF,PressureIn,WindDirection,WindDirectionDegrees,WindSpeedMPH,WindSpeedGustMPH,Humidity,HourlyPrecipIn,Conditions,Clouds,dailyrainin,SoftwareType,DateUTC
2013-06-21 00:01:00,62.1,52.3,29.21,West,270,0.0,0.0,70,0.00,,,0.00,WUHU216WMR100,2013-06-21 04:01:00,
2013-06-21 00:06:00,61.7,51.6,29.21,West,270,0.0,0.0,69,0.00,,,0.00,WUHU216WMR100,2013-06-21 04:06:00,
2013-06-21 00:11:00,61.7,52.3,29.21,West,270,0.0,0.0,71,0.00,,,0.00,WUHU216WMR100,2013-06-21 04:11:00,
2013-06-21 00:16:00,61.7,52.3,29.21,West,270,0.0,0.0,71,0.00,,,0.00,WUHU216WMR100,2013-06-21 04:16:00,
2013-06-21 00:21:00,61.5,52.1,29.21,West,270,0.0,0.0,71,0.00,,,0.00,WUHU216WMR100,2013-06-21 04:21:00,
2013-06-21 00:26:00,61.3,52.3,29.21,West,270,0.0,0.0,72,0.00,,,0.00,WUHU216WMR100,2013-06-21 04:26:00,
2013-06-21 00:31:00,61.3,52.3,29.21,West,270,0.0,0.0,72,0.00,,,0.00,WUHU216WMR100,2013-06-21 04:31:00,
2013-06-21 00:36:00,61.0,52.4,29.21,West,270,0.0,0.0,73,0.00,,,0.00,WUHU216WMR100,2013-06-21 04:36:00,
2013-06-21 00:41:00,61.0,52.4,29.21,NW,315,0.0,0.0,73,0.00,,,0.00,WUHU216WMR100,2013-06-21 04:41:00,
2013-06-21 00:46:00,60.8,52.6,29.21,NW,315,0.0,0.0,74,0.00,,,0.00,WUHU216WMR100,2013-06-21 04:46:00,
2013-06-21 00:51:00,60.6,52.4,29.21,NW,315,0.0,0.0,74,0.00,,,0.00,WUHU216WMR100,2013-06-21 04:51:00,
2013-06-21 00:56:00,60.4,52.2,29.21,NW,315,0.0,0.0,74,0.00,,,0.00,WUHU216WMR100,2013-06-21 04:56:00,
2013-06-21 01:01:00,60.3,52.1,29.21,NW,315,0.0,0.0,74,0.00,,,0.00,WUHU216WMR100,2013-06-21 05:01:00,
2013-06-21 01:06:00,60.3,52.1,29.21,NW,315,0.0,0.0,74,0.00,,,0.00,WUHU216WMR100,2013-06-21 05:06:00,
2013-06-21 01:12:00,60.1,51.9,29.21,NW,315,0.0,0.0,74,0.00,,,0.00,WUHU216WMR100,2013-06-21 05:12:00,
2013-06-21 01:17:00,59.7,51.5,29.21,NW,315,0.0,0.0,74,0.00,,,0.00,WUHU216WMR100,2013-06-21 05:17:00,
2013-06-21 01:22:00,59.7,51.9,29.21,NW,315,0.0,0.0,75,0.00,,,0.00,WUHU216WMR100,2013-06-21 05:22:00,
2013-06-21 01:27:00,59.4,51.6,29.21,NW,315,0.0,0.0,75,0.00,,,0.00,WUHU216WMR100,2013-06-21 05:27:00,
2013-06-21 01:32:00,59.5,52.0,29.21,NW,315,0.0,0.0,76,0.00,,,0.00,WUHU216WMR100,2013-06-21 05:32:00,
2013-06-21 01:37:00,59.4,52.3,29.23,NW,315,0.0,0.0,77,0.00,,,0.00,WUHU216WMR100,2013-06-21 05:37:00,
2013-06-21 01:42:00,59.4,52.3,29.23,NW,315,0.0,0.0,77,0.00,,,0.00,WUHU216WMR100,2013-06-21 05:42:00,
2013-06-21 01:47:00,59.2,52.1,29.23,NW,315,0.0,0.0,77,0.00,,,0.00,WUHU216WMR100,2013-06-21 05:47:00,
2013-06-21 01:52:00,58.8,52.0,29.21,NW,315,0.0,0.0,78,0.00,,,0.00,WUHU216WMR100,2013-06-21 05:52:00,
2013-06-21 01:57:00,58.6,51.5,29.21,NW,315,0.0,0.0,77,0.00,,,0.00,WUHU216WMR100,2013-06-21 05:57:00,
2013-06-21 02:02:00,58.6,51.5,29.23,NW,315,0.0,0.0,77,0.00,,,0.00,WUHU216WMR100,2013-06-21 06:02:00,
2013-06-21 02:07:00,58.6,52.2,29.23,NW,315,0.0,0.0,79,0.00,,,0.00,WUHU216WMR100,2013-06-21 06:07:00,
2013-06-21 02:12:00,58.5,52.4,29.23,NW,315,0.0,0.0,80,0.00,,,0.00,WUHU216WMR100,2013-06-21 06:12:00,
2013-06-21 02:17:00,58.6,52.5,29.21,NW,315,0.0,0.0,80,0.00,,,0.00,WUHU216WMR100,2013-06-21 06:17:00,
2013-06-21 02:22:00,58.5,52.4,29.21,NW,315,0.0,0.0,80,0.00,,,0.00,WUHU216WMR100,2013-06-21 06:22:00,
2013-06-21 02:27:00,58.5,52.7,29.21,NW,315,0.0,0.0,81,0.00,,,0.00,WUHU216WMR100,2013-06-21 06:27:00,
2013-06-21 02:32:00,58.3,52.9,29.21,NW,315,0.0,0.0,82,0.00,,,0.00,WUHU216WMR100,2013-06-21 06:32:00,
2013-06-21 02:37:00,58.3,52.5,29.21,NW,315,0.0,0.0,81,0.00,,,0.00,WUHU216WMR100,2013-06-21 06:37:00,
2013-06-21 02:42:00,58.3,52.5,29.21,NW,315,0.0,0.0,81,0.00,,,0.00,WUHU216WMR100,2013-06-21 06:42:00,
2013-06-21 02:47:00,58.3,52.9,29.21,NW,315,0.0,0.0,82,0.00,,,0.00,WUHU216WMR100,2013-06-21 06:47:00,
2013-06-21 02:52:00,58.1,52.7,29.21,NW,315,0.0,0.0,82,0.00,,,0.00,WUHU216WMR100,2013-06-21 06:52:00,
2013-06-21 02:57:00,58.1,52.7,29.21,NW,315,0.0,0.0,82,0.00,,,0.00,WUHU216WMR100,2013-06-21 06:57:00,
2013-06-21 03:02:00,57.9,52.8,29.21,NW,315,0.0,0.0,83,0.00,,,0.00,WUHU216WMR100,2013-06-21 07:02:00,
2013-06-21 03:07:00,57.7,52.6,29.21,NW,315,0.0,0.0,83,0.00,,,0.00,WUHU216WMR100,2013-06-21 07:07:00,
2013-06-21 03:12:00,57.6,52.2,29.21,NW,315,0.0,0.0,82,0.00,,,0.00,WUHU216WMR100,2013-06-21 07:12:00,
2013-06-21 03:17:00,57.6,52.5,29.21,NW,315,0.0,0.0,83,0.00,,,0.00,WUHU216WMR100,2013-06-21 07:17:00,
2013-06-21 03:22:00,57.7,52.9,29.21,NW,315,0.0,0.0,84,0.00,,,0.00,WUHU216WMR100,2013-06-21 07:22:00,
2013-06-21 03:27:00,57.6,52.8,29.21,NW,315,0.0,0.0,84,0.00,,,0.00,WUHU216WMR100,2013-06-21 07:27:00,
2013-06-21 03:32:00,57.6,52.5,29.23,NW,315,0.0,0.0,83,0.00,,,0.00,WUHU216WMR100,2013-06-21 07:32:00,
2013-06-21 03:37:00,57.6,52.8,29.23,NW,315,0.0,0.0,84,0.00,,,0.00,WUHU216WMR100,2013-06-21 07:37:00,
2013-06-21 03:42:00,57.4,52.6,29.23,NW,315,0.0,0.0,84,0.00,,,0.00,WUHU216WMR100,2013-06-21 07:42:00,
2013-06-21 03:47:00,57.4,52.9,29.21,NW,315,0.0,0.0,85,0.00,,,0.00,WUHU216WMR100,2013-06-21 07:47:00,
2013-06-21 03:52:00,57.2,52.7,29.21,NW,315,0.0,0.0,85,0.00,,,0.00,WUHU216WMR100,2013-06-21 07:52:00,
2013-06-21 03:57:00,57.2,52.4,29.21,NW,315,0.0,0.0,84,0.00,,,0.00,WUHU216WMR100,2013-06-21 07:57:00,
2013-06-21 04:03:00,57.0,52.8,29.21,NW,315,0.0,0.0,86,0.00,,,0.00,WUHU216WMR100,2013-06-21 08:03:00,
2013-06-21 04:08:00,57.0,52.8,29.21,NW,315,0.0,0.0,86,0.00,,,0.00,WUHU216WMR100,2013-06-21 08:08:00,
2013-06-21 04:13:00,57.0,52.8,29.21,NW,315,0.0,0.0,86,0.00,,,0.00,WUHU216WMR100,2013-06-21 08:13:00,
2013-06-21 04:18:00,57.0,52.8,29.21,NW,315,0.0,0.0,86,0.00,,,0.00,WUHU216WMR100,2013-06-21 08:18:00,
2013-06-21 04:23:00,56.8,53.0,29.21,NW,315,0.0,0.0,87,0.00,,,0.00,WUHU216WMR100,2013-06-21 08:23:00,
2013-06-21 04:28:00,56.8,53.0,29.21,NW,315,0.0,0.0,87,0.00,,,0.00,WUHU216WMR100,2013-06-21 08:28:00,
2013-06-21 04:33:00,56.8,53.0,29.21,NW,315,0.0,0.0,87,0.00,,,0.00,WUHU216WMR100,2013-06-21 08:33:00,
2013-06-21 04:38:00,56.8,52.7,29.21,NW,315,0.0,0.0,86,0.00,,,0.00,WUHU216WMR100,2013-06-21 08:38:00,
2013-06-21 04:43:00,56.8,53.0,29.21,NW,315,0.0,0.0,87,0.00,,,0.00,WUHU216WMR100,2013-06-21 08:43:00,
2013-06-21 04:48:00,56.8,53.0,29.23,NW,315,0.0,0.0,87,0.00,,,0.00,WUHU216WMR100,2013-06-21 08:48:00,
2013-06-21 04:53:00,57.0,53.2,29.23,NW,315,0.0,0.0,87,0.00,,,0.00,WUHU216WMR100,2013-06-21 08:53:00,
2013-06-21 04:58:00,57.0,53.5,29.23,NW,315,0.0,0.0,88,0.00,,,0.00,WUHU216WMR100,2013-06-21 08:58:00,
2013-06-21 05:03:00,57.0,53.5,29.23,NW,315,0.0,0.0,88,0.00,,,0.00,WUHU216WMR100,2013-06-21 09:03:00,
2013-06-21 05:08:00,56.8,53.0,29.23,NW,315,0.0,0.0,87,0.00,,,0.00,WUHU216WMR100,2013-06-21 09:08:00,
2013-06-21 05:13:00,56.7,52.9,29.23,NW,315,0.0,0.0,87,0.00,,,0.00,WUHU216WMR100,2013-06-21 09:13:00,
2013-06-21 05:18:00,56.7,53.2,29.23,NW,315,0.0,0.0,88,0.00,,,0.00,WUHU216WMR100,2013-06-21 09:18:00,
2013-06-21 05:23:00,56.7,53.2,29.23,NW,315,0.0,0.0,88,0.00,,,0.00,WUHU216WMR100,2013-06-21 09:23:00,
2013-06-21 05:28:00,56.7,53.5,29.23,NW,315,0.0,0.0,89,0.00,,,0.00,WUHU216WMR100,2013-06-21 09:28:00,
2013-06-21 05:33:00,56.5,53.0,29.23,NW,315,0.0,0.0,88,0.00,,,0.00,WUHU216WMR100,2013-06-21 09:33:00,
2013-06-21 05:38:00,56.3,53.1,29.23,NW,315,0.0,0.0,89,0.00,,,0.00,WUHU216WMR100,2013-06-21 09:38:00,
2013-06-21 05:43:00,56.5,53.3,29.23,NW,315,0.0,0.0,89,0.00,,,0.00,WUHU216WMR100,2013-06-21 09:43:00,
2013-06-21 05:48:00,56.3,53.1,29.23,NW,315,0.0,0.0,89,0.00,,,0.00,WUHU216WMR100,2013-06-21 09:48:00,
2013-06-21 05:53:00,56.3,53.1,29.23,NW,315,0.0,0.0,89,0.00,,,0.00,WUHU216WMR100,2013-06-21 09:53:00,
2013-06-21 05:58:00,56.3,53.4,29.23,NW,315,0.0,0.0,90,0.00,,,0.00,WUHU216WMR100,2013-06-21 09:58:00,
2013-06-21 06:03:00,56.1,52.9,29.23,NW,315,0.0,0.0,89,0.00,,,0.00,WUHU216WMR100,2013-06-21 10:03:00,
2013-06-21 06:08:00,56.1,53.2,29.23,NW,315,0.0,0.0,90,0.00,,,0.00,WUHU216WMR100,2013-06-21 10:08:00,
2013-06-21 06:13:00,56.1,53.2,29.23,NW,315,0.0,0.0,90,0.00,,,0.00,WUHU216WMR100,2013-06-21 10:13:00,
2013-06-21 06:18:00,56.1,53.2,29.23,NW,315,0.0,0.0,90,0.00,,,0.00,WUHU216WMR100,2013-06-21 10:18:00,
2013-06-21 06:23:00,56.5,53.9,29.23,NW,315,0.0,0.0,91,0.00,,,0.00,WUHU216WMR100,2013-06-21 10:23:00,
2013-06-21 06:28:00,56.7,54.1,29.23,NW,315,0.0,0.0,91,0.00,,,0.00,WUHU216WMR100,2013-06-21 10:28:00,
2013-06-21 06:33:00,57.2,54.6,29.23,NW,315,0.0,0.0,91,0.00,,,0.00,WUHU216WMR100,2013-06-21 10:33:00,
2013-06-21 06:38:00,57.7,55.1,29.23,NW,315,0.0,0.0,91,0.00,,,0.00,WUHU216WMR100,2013-06-21 10:38:00,
2013-06-21 06:43:00,58.1,55.5,29.23,NW,315,0.0,0.0,91,0.00,,,0.00,WUHU216WMR100,2013-06-21 10:43:00,
2013-06-21 06:48:00,58.6,55.9,29.23,NW,315,0.0,0.0,91,0.00,,,0.00,WUHU216WMR100,2013-06-21 10:48:00,
2013-06-21 06:53:00,59.2,56.5,29.23,NW,315,0.0,0.0,91,0.00,,,0.00,WUHU216WMR100,2013-06-21 10:53:00,
2013-06-21 06:58:00,59.7,57.0,29.23,NW,315,0.0,0.0,91,0.00,,,0.00,WUHU216WMR100,2013-06-21 10:58:00,
2013-06-21 07:03:00,60.4,57.7,29.23,NW,315,0.0,0.0,91,0.00,,,0.00,WUHU216WMR100,2013-06-21 11:03:00,
2013-06-21 07:08:00,60.6,57.3,29.23,NW,315,0.0,0.0,89,0.00,,,0.00,WUHU216WMR100,2013-06-21 11:08:00,
2013-06-21 07:13:00,61.0,57.4,29.23,NW,315,0.0,0.0,88,0.00,,,0.00,WUHU216WMR100,2013-06-21 11:13:00,
2013-06-21 07:18:00,61.3,57.4,29.23,NW,315,0.0,0.0,87,0.00,,,0.00,WUHU216WMR100,2013-06-21 11:18:00,
2013-06-21 07:23:00,62.1,57.9,29.23,NW,315,0.0,0.0,86,0.00,,,0.00,WUHU216WMR100,2013-06-21 11:23:00,
2013-06-21 07:28:00,62.8,58.2,29.23,NW,315,0.0,0.0,85,0.00,,,0.00,WUHU216WMR100,2013-06-21 11:28:00,
2013-06-21 07:33:00,63.1,57.9,29.23,NW,315,0.0,0.0,83,0.00,,,0.00,WUHU216WMR100,2013-06-21 11:33:00,
2013-06-21 07:38:00,64.2,58.3,29.23,NW,315,0.0,0.0,81,0.00,,,0.00,WUHU216WMR100,2013-06-21 11:38:00,
2013-06-21 07:43:00,64.8,58.2,29.23,NW,315,0.0,0.0,79,0.00,,,0.00,WUHU216WMR100,2013-06-21 11:43:00,
2013-06-21 07:48:00,65.3,57.7,29.23,NW,315,0.0,0.0,76,0.00,,,0.00,WUHU216WMR100,2013-06-21 11:48:00,
2013-06-21 07:55:00,66.2,57.8,29.23,NW,315,0.0,0.0,74,0.00,,,0.00,WUHU216WMR100,2013-06-21 11:55:00,
2013-06-21 08:00:00,66.6,57.4,29.23,NW,315,0.0,0.0,72,0.00,,,0.00,WUHU216WMR100,2013-06-21 12:00:00,
2013-06-21 08:05:00,67.1,57.2,29.23,NW,315,0.0,0.0,70,0.00,,,0.00,WUHU216WMR100,2013-06-21 12:05:00,
2013-06-21 08:10:00,68.0,57.6,29.23,NW,315,0.0,0.0,69,0.00,,,0.00,WUHU216WMR100,2013-06-21 12:10:00,
2013-06-21 08:15:00,68.7,57.1,29.23,NW,315,0.0,0.0,66,0.00,,,0.00,WUHU216WMR100,2013-06-21 12:15:00,
2013-06-21 08:20:00,69.4,57.3,29.23,NW,315,0.0,0.0,65,0.00,,,0.00,WUHU216WMR100,2013-06-21 12:20:00,
2013-06-21 08:26:00,70.2,56.3,29.23,NW,315,0.0,0.0,61,0.00,,,0.00,WUHU216WMR100,2013-06-21 12:26:00,
2013-06-21 08:31:00,70.3,55.9,29.23,NW,315,0.0,0.0,60,0.00,,,0.00,WUHU216WMR100,2013-06-21 12:31:00,
2013-06-21 08:36:00,71.2,56.3,29.26,NW,315,0.0,0.0,59,0.00,,,0.00,WUHU216WMR100,2013-06-21 12:36:00,
2013-06-21 08:41:00,71.6,54.7,29.26,East,90,0.0,0.0,55,0.00,,,0.00,WUHU216WMR100,2013-06-21 12:41:00,
2013-06-21 08:46:00,71.6,54.7,29.26,East,90,0.0,0.0,55,0.00,,,0.00,WUHU216WMR100,2013-06-21 12:46:00,
2013-06-21 08:51:00,72.3,53.8,29.23,ESE,112,1.3,2.5,52,0.00,,,0.00,WUHU216WMR100,2013-06-21 12:51:00,
2013-06-21 08:56:00,72.7,54.7,29.23,ESE,112,0.0,2.5,53,0.00,,,0.00,WUHU216WMR100,2013-06-21 12:56:00,
2013-06-21 09:01:00,73.6,55.0,29.23,ESE,112,0.0,2.2,52,0.00,,,0.00,WUHU216WMR100,2013-06-21 13:01:00,
2013-06-21 09:06:00,75.0,55.7,29.23,SSE,157,1.3,2.2,51,0.00,,,0.00,WUHU216WMR100,2013-06-21 13:06:00,
2013-06-21 09:11:00,75.4,53.8,29.23,SSE,157,1.3,2.2,47,0.00,,,0.00,WUHU216WMR100,2013-06-21 13:11:00,
2013-06-21 09:16:00,76.1,53.8,29.23,SSE,157,0.0,2.2,46,0.00,,,0.00,WUHU216WMR100,2013-06-21 13:16:00,
2013-06-21 09:21:00,76.6,53.0,29.23,East,90,1.6,2.5,44,0.00,,,0.00,WUHU216WMR100,2013-06-21 13:21:00,
2013-06-21 09:26:00,77.0,52.8,29.23,East,90,1.1,2.7,43,0.00,,,0.00,WUHU216WMR100,2013-06-21 13:26:00,
2013-06-21 09:31:00,78.1,53.1,29.23,East,90,1.1,2.7,42,0.00,,,0.00,WUHU216WMR100,2013-06-21 13:31:00,
2013-06-21 09:36:00,78.6,52.9,29.23,WSW,247,1.0,2.7,41,0.00,,,0.00,WUHU216WMR100,2013-06-21 13:36:00,
2013-06-21 09:41:00,79.7,53.2,29.23,WSW,247,0.0,2.5,40,0.00,,,0.00,WUHU216WMR100,2013-06-21 13:41:00,
2013-06-21 09:46:00,80.1,52.1,29.23,WSW,247,1.6,2.5,38,0.00,,,0.00,WUHU216WMR100,2013-06-21 13:46:00,
2013-06-21 09:51:00,80.8,51.2,29.23,WSW,247,1.1,2.5,36,0.00,,,0.00,WUHU216WMR100,2013-06-21 13:51:00,
2013-06-21 09:56:00,81.7,51.3,29.23,WSW,247,0.0,2.5,35,0.00,,,0.00,WUHU216WMR100,2013-06-21 13:56:00,
2013-06-21 10:01:00,82.2,50.9,29.23,NE,45,1.1,2.7,34,0.00,,,0.00,WUHU216WMR100,2013-06-21 14:01:00,
2013-06-21 10:06:00,81.9,49.8,29.23,NE,45,1.3,3.1,33,0.00,,,0.00,WUHU216WMR100,2013-06-21 14:06:00,
2013-06-21 10:12:00,82.9,50.7,29.23,NE,45,0.0,3.1,33,0.00,,,0.00,WUHU216WMR100,2013-06-21 14:12:00,
2013-06-21 10:17:00,83.3,49.4,29.23,NNE,22,0.0,0.0,31,0.00,,,0.00,WUHU216WMR100,2013-06-21 14:17:00,
2013-06-21 10:22:00,83.3,49.4,29.23,NNE,22,0.0,0.0,31,0.00,,,0.00,WUHU216WMR100,2013-06-21 14:22:00,
2013-06-21 10:27:00,84.6,49.6,29.23,NNE,22,0.0,0.0,30,0.00,,,0.00,WUHU216WMR100,2013-06-21 14:27:00,
2013-06-21 10:32:00,84.7,49.7,29.23,WSW,247,0.0,3.1,30,0.00,,,0.00,WUHU216WMR100,2013-06-21 14:32:00,
2013-06-21 10:37:00,85.1,49.1,29.23,SSW,202,1.6,3.8,29,0.00,,,0.00,WUHU216WMR100,2013-06-21 14:37:00,
2013-06-21 10:42:00,86.0,49.0,29.23,WSW,247,2.0,3.8,28,0.00,,,0.00,WUHU216WMR100,2013-06-21 14:42:00,
2013-06-21 10:47:00,86.0,49.0,29.23,West,270,2.0,3.8,28,0.00,,,0.00,WUHU216WMR100,2013-06-21 14:47:00,
2013-06-21 10:52:00,86.0,48.0,29.23,SSE,157,0.0,3.6,27,0.00,,,0.00,WUHU216WMR100,2013-06-21 14:52:00,
2013-06-21 10:57:00,87.1,48.0,29.23,SSE,157,2.1,3.8,26,0.00,,,0.00,WUHU216WMR100,2013-06-21 14:57:00,
2013-06-21 11:02:00,87.1,45.9,29.23,WSW,247,3.1,4.0,24,0.00,,,0.00,WUHU216WMR100,2013-06-21 15:02:00,
2013-06-21 11:07:00,88.2,46.8,29.23,WNW,292,2.2,4.0,24,0.00,,,0.00,WUHU216WMR100,2013-06-21 15:07:00,
2013-06-21 11:12:00,88.7,48.3,29.23,WNW,292,2.0,3.1,25,0.00,,,0.00,WUHU216WMR100,2013-06-21 15:12:00,
2013-06-21 11:17:00,88.5,45.9,29.23,East,90,2.0,4.3,23,0.00,,,0.00,WUHU216WMR100,2013-06-21 15:17:00,
2013-06-21 11:22:00,89.6,46.9,29.23,North,0,0.0,4.3,23,0.00,,,0.00,WUHU216WMR100,2013-06-21 15:22:00,
2013-06-21 11:27:00,88.3,44.6,29.23,SE,133,3.0,4.3,22,0.00,,,0.00,WUHU216WMR100,2013-06-21 15:27:00,
2013-06-21 11:32:00,89.2,45.4,29.26,NNE,22,2.6,4.3,22,0.00,,,0.00,WUHU216WMR100,2013-06-21 15:32:00,
2013-06-21 11:37:00,90.0,44.8,29.26,NNE,22,0.0,3.4,21,0.00,,,0.00,WUHU216WMR100,2013-06-21 15:37:00,
2013-06-21 11:42:00,89.1,44.1,29.26,East,101,3.1,4.3,21,0.00,,,0.00,WUHU216WMR100,2013-06-21 15:42:00,
2013-06-21 11:47:00,88.3,43.4,29.26,ENE,67,2.9,5.6,21,0.00,,,0.00,WUHU216WMR100,2013-06-21 15:47:00,
2013-06-21 11:52:00,89.4,44.3,29.26,WNW,292,0.4,5.6,21,0.00,,,0.00,WUHU216WMR100,2013-06-21 15:52:00,
2013-06-21 11:57:00,88.9,41.3,29.26,East,90,3.6,3.8,19,0.00,,,0.00,WUHU216WMR100,2013-06-21 15:57:00,
2013-06-21 12:02:00,90.1,43.6,29.26,SE,128,1.7,3.8,20,0.00,,,0.00,WUHU216WMR100,2013-06-21 16:02:00,
2013-06-21 12:08:00,90.7,42.8,29.26,WSW,247,0.9,3.8,19,0.00,,,0.00,WUHU216WMR100,2013-06-21 16:08:00,
2013-06-21 12:13:00,90.1,42.3,29.26,ENE,67,2.5,3.8,19,0.00,,,0.00,WUHU216WMR100,2013-06-21 16:13:00,
2013-06-21 12:18:00,90.1,43.6,29.23,NE,56,1.5,3.8,20,0.00,,,0.00,WUHU216WMR100,2013-06-21 16:18:00,
2013-06-21 12:22:00,92.1,43.9,29.23,West,270,1.6,3.1,19,0.00,,,0.00,WUHU216WMR100,2013-06-21 16:22:00,
2013-06-21 12:28:00,91.8,43.7,29.23,SSW,202,2.7,4.9,19,0.00,,,0.00,WUHU216WMR100,2013-06-21 16:28:00,
2013-06-21 12:33:00,92.7,43.0,29.23,SSE,157,1.6,4.9,18,0.00,,,0.00,WUHU216WMR100,2013-06-21 16:33:00,
2013-06-21 12:38:00,91.9,42.4,29.23,ESE,112,2.0,3.8,18,0.00,,,0.00,WUHU216WMR100,2013-06-21 16:38:00,
2013-06-21 12:43:00,92.5,44.3,29.23,West,270,1.2,3.1,19,0.00,,,0.00,WUHU216WMR100,2013-06-21 16:43:00,
2013-06-21 12:48:00,92.1,42.5,29.23,SW,225,3.4,3.8,18,0.00,,,0.00,WUHU216WMR100,2013-06-21 16:48:00,
2013-06-21 12:53:00,91.4,41.9,29.23,WSW,245,3.2,4.9,18,0.00,,,0.00,WUHU216WMR100,2013-06-21 16:53:00,
2013-06-21 12:58:00,91.9,42.4,29.23,ESE,107,2.7,4.9,18,0.00,,,0.00,WUHU216WMR100,2013-06-21 16:58:00,
2013-06-21 13:03:00,92.3,42.7,29.23,SSE,157,1.2,4.7,18,0.00,,,0.00,WUHU216WMR100,2013-06-21 17:03:00,
2013-06-21 13:08:00,92.7,43.0,29.23,ESE,112,2.2,3.8,18,0.00,,,0.00,WUHU216WMR100,2013-06-21 17:08:00,
2013-06-21 13:14:00,92.8,43.1,29.23,ESE,112,0.5,4.0,18,0.00,,,0.00,WUHU216WMR100,2013-06-21 17:14:00,
2013-06-21 13:19:00,93.4,42.1,29.23,SW,225,1.3,4.0,17,0.00,,,0.00,WUHU216WMR100,2013-06-21 17:19:00,
2013-06-21 13:24:00,93.2,41.9,29.23,SW,236,2.4,4.7,17,0.00,,,0.00,WUHU216WMR100,2013-06-21 17:24:00,
2013-06-21 13:29:00,92.5,42.8,29.23,WSW,257,2.5,4.7,18,0.00,,,0.00,WUHU216WMR100,2013-06-21 17:29:00,
2013-06-21 13:34:00,92.7,43.0,29.23,SW,225,1.6,3.8,18,0.00,,,0.00,WUHU216WMR100,2013-06-21 17:34:00,
2013-06-21 13:40:00,91.6,42.1,29.23,SW,225,2.7,5.6,18,0.00,,,0.00,WUHU216WMR100,2013-06-21 17:40:00,
2013-06-21 13:45:00,91.9,42.4,29.23,WSW,247,2.0,5.6,18,0.00,,,0.00,WUHU216WMR100,2013-06-21 17:45:00,
2013-06-21 13:46:00,92.3,42.7,29.23,WSW,247,3.1,5.8,18,0.00,,,0.00,WUHU216WMR100,2013-06-21 17:46:00,
2013-06-21 13:48:00,92.5,42.8,29.23,SW,229,2.3,5.8,18,0.00,,,0.00,WUHU216WMR100,2013-06-21 17:48:00,
2013-06-21 13:53:00,93.0,43.2,29.23,WNW,296,2.7,5.8,18,0.00,,,0.00,WUHU216WMR100,2013-06-21 17:53:00,
2013-06-21 13:58:00,92.5,42.8,29.23,WSW,245,3.3,6.0,18,0.00,,,0.00,WUHU216WMR100,2013-06-21 17:58:00,
2013-06-21 14:03:00,93.2,43.4,29.23,NE,46,2.6,6.0,18,0.00,,,0.00,WUHU216WMR100,2013-06-21 18:03:00,
2013-06-21 14:08:00,92.7,43.0,29.23,East,90,3.4,4.7,18,0.00,,,0.00,WUHU216WMR100,2013-06-21 18:08:00,
2013-06-21 14:13:00,92.8,43.1,29.23,SE,135,2.0,4.7,18,0.00,,,0.00,WUHU216WMR100,2013-06-21 18:13:00,
2013-06-21 14:18:00,92.5,42.8,29.23,ESE,105,2.1,4.0,18,0.00,,,0.00,WUHU216WMR100,2013-06-21 18:18:00,
2013-06-21 14:25:00,93.2,43.4,29.23,SW,225,2.5,4.3,18,0.00,,,0.00,WUHU216WMR100,2013-06-21 18:25:00,
2013-06-21 14:26:00,93.2,43.4,29.23,SW,225,2.5,4.3,18,0.00,,,0.00,WUHU216WMR100,2013-06-21 18:26:00,
2013-06-21 14:31:00,93.7,43.8,29.23,WSW,247,2.8,4.3,18,0.00,,,0.00,WUHU216WMR100,2013-06-21 18:31:00,
2013-06-21 14:36:00,94.1,44.1,29.21,SW,225,2.0,4.0,18,0.00,,,0.00,WUHU216WMR100,2013-06-21 18:36:00,
2013-06-21 14:41:00,94.6,44.5,29.21,SW,229,1.4,3.4,18,0.00,,,0.00,WUHU216WMR100,2013-06-21 18:41:00,
2013-06-21 14:45:00,93.6,43.7,29.21,WSW,247,2.9,3.8,18,0.00,,,0.00,WUHU216WMR100,2013-06-21 18:45:00,
2013-06-21 14:46:00,93.9,44.0,29.21,SSW,198,2.7,3.8,18,0.00,,,0.00,WUHU216WMR100,2013-06-21 18:46:00,
2013-06-21 14:51:00,94.8,44.7,29.21,WSW,247,2.5,5.4,18,0.00,,,0.00,WUHU216WMR100,2013-06-21 18:51:00,
2013-06-21 14:56:00,94.1,42.6,29.21,SW,225,2.5,5.6,17,0.00,,,0.00,WUHU216WMR100,2013-06-21 18:56:00,
2013-06-21 15:01:00,94.1,44.1,29.21,West,270,2.5,5.6,18,0.00,,,0.00,WUHU216WMR100,2013-06-21 19:01:00,
2013-06-21 15:06:00,94.6,44.5,29.21,SSE,158,0.9,5.4,18,0.00,,,0.00,WUHU216WMR100,2013-06-21 19:06:00,
2013-06-21 15:12:00,93.4,42.1,29.21,SSW,202,2.7,4.3,17,0.00,,,0.00,WUHU216WMR100,2013-06-21 19:12:00,
2013-06-21 15:17:00,94.6,44.5,29.21,North,0,0.0,4.3,18,0.00,,,0.00,WUHU216WMR100,2013-06-21 19:17:00,
2013-06-21 15:20:00,94.3,44.3,29.21,South,180,2.9,3.6,18,0.00,,,0.00,WUHU216WMR100,2013-06-21 19:20:00,
2013-06-21 15:25:00,94.8,44.7,29.21,SSW,202,2.5,4.7,18,0.00,,,0.00,WUHU216WMR100,2013-06-21 19:25:00,
2013-06-21 15:30:00,94.8,44.7,29.21,SSW,202,3.1,4.9,18,0.00,,,0.00,WUHU216WMR100,2013-06-21 19:30:00,
2013-06-21 15:35:00,93.7,43.8,29.21,NNW,337,3.4,5.6,18,0.00,,,0.00,WUHU216WMR100,2013-06-21 19:35:00,
2013-06-21 15:40:00,93.7,43.8,29.21,West,270,2.9,5.6,18,0.00,,,0.00,WUHU216WMR100,2013-06-21 19:40:00,
2013-06-21 15:42:00,93.4,43.6,29.21,NW,315,3.1,5.6,18,0.00,,,0.00,WUHU216WMR100,2013-06-21 19:42:00,
2013-06-21 15:47:00,93.7,43.8,29.21,WSW,241,3.0,5.6,18,0.00,,,0.00,WUHU216WMR100,2013-06-21 19:47:00,
2013-06-21 15:52:00,94.3,44.3,29.21,SSE,157,1.3,3.8,18,0.00,,,0.00,WUHU216WMR100,2013-06-21 19:52:00,
2013-06-21 15:57:00,93.9,44.0,29.21,WSW,247,1.3,5.4,18,0.00,,,0.00,WUHU216WMR100,2013-06-21 19:57:00,
2013-06-21 16:02:00,93.4,43.6,29.21,SSW,202,2.5,5.4,18,0.00,,,0.00,WUHU216WMR100,2013-06-21 20:02:00,
2013-06-21 16:04:00,93.6,43.7,29.21,NE,45,2.7,5.4,18,0.00,,,0.00,WUHU216WMR100,2013-06-21 20:04:00,
2013-06-21 16:09:00,93.7,43.8,29.21,SSW,202,0.8,4.0,18,0.00,,,0.00,WUHU216WMR100,2013-06-21 20:09:00,
2013-06-21 16:11:00,93.7,42.3,29.21,SSE,157,2.2,4.0,17,0.00,,,0.00,WUHU216WMR100,2013-06-21 20:11:00,
2013-06-21 16:13:00,93.7,42.3,29.21,WSW,247,3.1,6.3,17,0.00,,,0.00,WUHU216WMR100,2013-06-21 20:13:00,
2013-06-21 16:18:00,93.4,42.1,29.21,South,180,2.9,6.3,17,0.00,,,0.00,WUHU216WMR100,2013-06-21 20:18:00,
2013-06-21 16:23:00,93.7,43.8,29.21,SW,225,3.4,5.8,18,0.00,,,0.00,WUHU216WMR100,2013-06-21 20:23:00,
2013-06-21 16:28:00,94.5,44.5,29.21,SSW,200,1.9,5.8,18,0.00,,,0.00,WUHU216WMR100,2013-06-21 20:28:00,
2013-06-21 16:33:00,94.3,44.3,29.18,West,266,3.3,5.8,18,0.00,,,0.00,WUHU216WMR100,2013-06-21 20:33:00,
2013-06-21 16:38:00,93.6,43.7,29.18,South,180,2.0,5.8,18,0.00,,,0.00,WUHU216WMR100,2013-06-21 20:38:00,
2013-06-21 16:44:00,93.9,44.0,29.18,WSW,249,3.0,5.8,18,0.00,,,0.00,WUHU216WMR100,2013-06-21 20:44:00,
2013-06-21 16:49:00,93.7,43.8,29.18,South,179,2.4,5.8,18,0.00,,,0.00,WUHU216WMR100,2013-06-21 20:49:00,
2013-06-21 16:54:00,92.5,42.8,29.18,SW,225,2.0,4.3,18,0.00,,,0.00,WUHU216WMR100,2013-06-21 20:54:00,
2013-06-21 16:59:00,91.8,42.3,29.18,SSW,202,2.0,3.4,18,0.00,,,0.00,WUHU216WMR100,2013-06-21 20:59:00,
2013-06-21 17:04:00,92.1,43.9,29.18,SSW,207,2.2,3.4,19,0.00,,,0.00,WUHU216WMR100,2013-06-21 21:04:00,
2013-06-21 17:05:00,92.1,43.9,29.18,SSW,204,2.1,3.4,19,0.00,,,0.00,WUHU216WMR100,2013-06-21 21:05:00,
2013-06-21 17:10:00,92.1,43.9,29.18,WSW,247,2.5,4.9,19,0.00,,,0.00,WUHU216WMR100,2013-06-21 21:10:00,
2013-06-21 17:15:00,92.5,42.8,29.18,WSW,247,2.7,4.9,18,0.00,,,0.00,WUHU216WMR100,2013-06-21 21:15:00,
2013-06-21 17:20:00,93.2,43.4,29.18,SW,225,2.2,4.0,18,0.00,,,0.00,WUHU216WMR100,2013-06-21 21:20:00,
2013-06-21 17:26:00,93.0,43.2,29.18,SW,225,2.7,5.6,18,0.00,,,0.00,WUHU216WMR100,2013-06-21 21:26:00,
2013-06-21 17:31:00,93.4,43.6,29.18,WSW,247,2.2,5.6,18,0.00,,,0.00,WUHU216WMR100,2013-06-21 21:31:00,
2013-06-21 17:38:00,93.9,44.0,29.18,NNE,22,1.1,2.7,18,0.00,,,0.00,WUHU216WMR100,2013-06-21 21:38:00,
2013-06-21 17:44:00,92.8,43.1,29.18,ENE,67,2.0,3.8,18,0.00,,,0.00,WUHU216WMR100,2013-06-21 21:44:00,
2013-06-21 17:49:00,92.1,42.5,29.15,ESE,116,2.8,4.9,18,0.00,,,0.00,WUHU216WMR100,2013-06-21 21:49:00,
2013-06-21 17:54:00,92.3,44.1,29.15,SSW,203,1.7,4.0,19,0.00,,,0.00,WUHU216WMR100,2013-06-21 21:54:00,
2013-06-21 17:59:00,92.3,44.1,29.15,WSW,247,2.2,3.1,19,0.00,,,0.00,WUHU216WMR100,2013-06-21 21:59:00,
2013-06-21 18:04:00,92.1,43.9,29.15,SSW,202,1.3,3.1,19,0.00,,,0.00,WUHU216WMR100,2013-06-21 22:04:00,
2013-06-21 18:09:00,91.6,43.5,29.15,SW,225,1.1,2.7,19,0.00,,,0.00,WUHU216WMR100,2013-06-21 22:09:00,
2013-06-21 18:14:00,91.6,43.5,29.15,WNW,292,0.5,2.9,19,0.00,,,0.00,WUHU216WMR100,2013-06-21 22:14:00,
2013-06-21 18:19:00,91.2,43.2,29.15,SSE,162,1.5,3.8,19,0.00,,,0.00,WUHU216WMR100,2013-06-21 22:19:00,
2013-06-21 18:24:00,90.9,42.9,29.15,WSW,247,2.9,4.3,19,0.00,,,0.00,WUHU216WMR100,2013-06-21 22:24:00,
2013-06-21 18:30:00,90.3,42.5,29.15,SW,219,2.6,4.9,19,0.00,,,0.00,WUHU216WMR100,2013-06-21 22:30:00,
2013-06-21 18:35:00,89.1,44.1,29.18,SSW,202,1.3,4.9,21,0.00,,,0.00,WUHU216WMR100,2013-06-21 22:35:00,
2013-06-21 18:40:00,88.0,43.2,29.18,ENE,67,1.6,3.1,21,0.00,,,0.00,WUHU216WMR100,2013-06-21 22:40:00,
2013-06-21 18:45:00,87.4,43.9,29.18,ENE,67,0.0,3.4,22,0.00,,,0.00,WUHU216WMR100,2013-06-21 22:45:00,
2013-06-21 18:50:00,86.7,44.4,29.18,WSW,247,2.0,3.4,23,0.00,,,0.00,WUHU216WMR100,2013-06-21 22:50:00,
2013-06-21 18:55:00,86.4,45.3,29.18,WSW,247,0.4,2.7,24,0.00,,,0.00,WUHU216WMR100,2013-06-21 22:55:00,
2013-06-21 19:00:00,85.6,45.7,29.18,WSW,247,0.0,2.5,25,0.00,,,0.00,WUHU216WMR100,2013-06-21 23:00:00,
2013-06-21 19:05:00,84.9,46.1,29.18,SSW,202,0.0,2.5,26,0.00,,,0.00,WUHU216WMR100,2013-06-21 23:05:00,
2013-06-21 19:10:00,84.6,47.8,29.18,SSW,202,0.0,2.5,28,0.00,,,0.00,WUHU216WMR100,2013-06-21 23:10:00,
2013-06-21 19:15:00,84.6,47.8,29.18,SSW,202,0.0,2.5,28,0.00,,,0.00,WUHU216WMR100,2013-06-21 23:15:00,
2013-06-21 19:20:00,84.2,47.4,29.18,SSW,202,0.2,3.4,28,0.00,,,0.00,WUHU216WMR100,2013-06-21 23:20:00,
2013-06-21 19:25:00,84.0,48.2,29.18,SSW,202,0.0,3.4,29,0.00,,,0.00,WUHU216WMR100,2013-06-21 23:25:00,
2013-06-21 19:30:00,83.8,48.0,29.18,SSW,202,0.0,0.0,29,0.00,,,0.00,WUHU216WMR100,2013-06-21 23:30:00,
2013-06-21 19:35:00,83.7,47.9,29.15,SSW,202,0.0,0.0,29,0.00,,,0.00,WUHU216WMR100,2013-06-21 23:35:00,
2013-06-21 19:40:00,83.5,47.8,29.15,SSW,202,0.0,0.0,29,0.00,,,0.00,WUHU216WMR100,2013-06-21 23:40:00,
2013-06-21 19:45:00,83.5,47.8,29.15,WSW,247,0.8,1.6,29,0.00,,,0.00,WUHU216WMR100,2013-06-21 23:45:00,
2013-06-21 19:50:00,83.1,47.4,29.18,WSW,247,0.0,1.6,29,0.00,,,0.00,WUHU216WMR100,2013-06-21 23:50:00,
2013-06-21 19:55:00,83.1,48.3,29.18,WSW,247,0.8,2.7,30,0.00,,,0.00,WUHU216WMR100,2013-06-21 23:55:00,
2013-06-21 20:00:00,82.9,48.1,29.18,WSW,247,0.0,2.7,30,0.00,,,0.00,WUHU216WMR100,2013-06-22 00:00:00,
2013-06-21 20:05:00,82.6,49.6,29.15,WSW,247,0.0,0.0,32,0.00,,,0.00,WUHU216WMR100,2013-06-22 00:05:00,
2013-06-21 20:10:00,82.2,49.3,29.15,WSW,247,0.0,0.0,32,0.00,,,0.00,WUHU216WMR100,2013-06-22 00:10:00,
2013-06-21 20:15:00,81.7,48.8,29.15,WSW,247,0.0,0.0,32,0.00,,,0.00,WUHU216WMR100,2013-06-22 00:15:00,
2013-06-21 20:20:00,81.1,48.3,29.15,WSW,247,0.0,1.1,32,0.00,,,0.00,WUHU216WMR100,2013-06-22 00:20:00,
2013-06-21 20:25:00,80.8,48.9,29.15,WSW,247,0.0,1.1,33,0.00,,,0.00,WUHU216WMR100,2013-06-22 00:25:00,
2013-06-21 20:30:00,80.2,49.1,29.15,WSW,247,0.0,0.0,34,0.00,,,0.00,WUHU216WMR100,2013-06-22 00:30:00,
2013-06-21 20:35:00,79.7,49.5,29.15,WSW,247,0.0,0.0,35,0.00,,,0.00,WUHU216WMR100,2013-06-22 00:35:00,
2013-06-21 20:40:00,79.3,49.9,29.15,WSW,247,0.0,0.0,36,0.00,,,0.00,WUHU216WMR100,2013-06-22 00:40:00,
2013-06-21 20:46:00,78.6,50.8,29.15,WSW,247,0.0,0.0,38,0.00,,,0.00,WUHU216WMR100,2013-06-22 00:46:00,
2013-06-21 20:51:00,78.3,51.2,29.15,WSW,247,0.0,0.0,39,0.00,,,0.00,WUHU216WMR100,2013-06-22 00:51:00,
2013-06-21 20:56:00,77.5,51.2,29.15,WSW,247,0.0,0.0,40,0.00,,,0.00,WUHU216WMR100,2013-06-22 00:56:00,
2013-06-21 21:01:00,77.0,51.4,29.15,WSW,247,0.0,0.0,41,0.00,,,0.00,WUHU216WMR100,2013-06-22 01:01:00,
2013-06-21 21:06:00,76.6,51.7,29.15,WSW,247,0.0,0.0,42,0.00,,,0.00,WUHU216WMR100,2013-06-22 01:06:00,
2013-06-21 21:11:00,76.1,51.9,29.15,WSW,247,0.0,0.0,43,0.00,,,0.00,WUHU216WMR100,2013-06-22 01:11:00,
2013-06-21 21:16:00,75.6,52.1,29.15,WSW,247,0.0,0.0,44,0.00,,,0.00,WUHU216WMR100,2013-06-22 01:16:00,
2013-06-21 21:21:00,75.0,52.2,29.15,WSW,247,0.0,0.0,45,0.00,,,0.00,WUHU216WMR100,2013-06-22 01:21:00,
2013-06-21 21:26:00,74.7,52.6,29.15,WSW,247,0.0,0.0,46,0.00,,,0.00,WUHU216WMR100,2013-06-22 01:26:00,
2013-06-21 21:31:00,74.1,52.6,29.15,WSW,247,0.0,0.0,47,0.00,,,0.00,WUHU216WMR100,2013-06-22 01:31:00,
2013-06-21 21:36:00,73.9,53.0,29.18,WSW,247,0.0,0.0,48,0.00,,,0.00,WUHU216WMR100,2013-06-22 01:36:00,
2013-06-21 21:41:00,73.8,54.1,29.18,WSW,247,0.0,0.0,50,0.00,,,0.00,WUHU216WMR100,2013-06-22 01:41:00,
2013-06-21 21:46:00,73.2,54.1,29.18,WSW,247,0.0,0.0,51,0.00,,,0.00,WUHU216WMR100,2013-06-22 01:46:00,
2013-06-21 21:51:00,72.9,54.3,29.15,WSW,247,0.0,0.0,52,0.00,,,0.00,WUHU216WMR100,2013-06-22 01:51:00,
2013-06-21 21:56:00,72.7,55.2,29.15,WSW,247,0.0,0.0,54,0.00,,,0.00,WUHU216WMR100,2013-06-22 01:56:00,
2013-06-21 22:01:00,72.5,56.1,29.15,WSW,247,0.0,0.0,56,0.00,,,0.00,WUHU216WMR100,2013-06-22 02:01:00,
2013-06-21 22:06:00,72.1,55.7,29.18,WSW,247,0.0,0.0,56,0.00,,,0.00,WUHU216WMR100,2013-06-22 02:06:00,
2013-06-21 22:11:00,71.8,55.9,29.18,WSW,247,0.0,0.0,57,0.00,,,0.00,WUHU216WMR100,2013-06-22 02:11:00,
2013-06-21 22:16:00,71.6,56.2,29.18,WSW,247,0.0,0.0,58,0.00,,,0.00,WUHU216WMR100,2013-06-22 02:16:00,
2013-06-21 22:21:00,71.4,57.4,29.18,WSW,247,0.0,0.0,61,0.00,,,0.00,WUHU216WMR100,2013-06-22 02:21:00,
2013-06-21 22:26:00,71.1,57.6,29.18,WSW,247,0.0,0.0,62,0.00,,,0.00,WUHU216WMR100,2013-06-22 02:26:00,
2013-06-21 22:31:00,70.9,57.4,29.18,WSW,247,0.0,0.0,62,0.00,,,0.00,WUHU216WMR100,2013-06-22 02:31:00,
2013-06-21 22:36:00,70.5,57.5,29.18,WSW,247,0.0,0.0,63,0.00,,,0.00,WUHU216WMR100,2013-06-22 02:36:00,
2013-06-21 22:41:00,70.5,57.5,29.18,WSW,247,0.0,0.0,63,0.00,,,0.00,WUHU216WMR100,2013-06-22 02:41:00,
2013-06-21 22:46:00,70.3,57.7,29.18,WSW,247,0.0,0.0,64,0.00,,,0.00,WUHU216WMR100,2013-06-22 02:46:00,
2013-06-21 22:53:00,69.8,57.7,29.18,WSW,247,0.0,0.0,65,0.00,,,0.00,WUHU216WMR100,2013-06-22 02:53:00,
2013-06-21 22:58:00,69.6,58.3,29.18,WSW,247,0.0,0.0,67,0.00,,,0.00,WUHU216WMR100,2013-06-22 02:58:00,
2013-06-21 23:04:00,69.6,58.3,29.18,WSW,247,0.0,0.0,67,0.00,,,0.00,WUHU216WMR100,2013-06-22 03:04:00,
2013-06-21 23:09:00,69.3,58.1,29.18,WSW,247,0.0,0.0,67,0.00,,,0.00,WUHU216WMR100,2013-06-22 03:09:00,
2013-06-21 23:14:00,68.9,57.7,29.18,WSW,247,0.0,0.0,67,0.00,,,0.00,WUHU216WMR100,2013-06-22 03:14:00,
2013-06-21 23:19:00,68.7,57.5,29.15,WSW,247,0.0,0.0,67,0.00,,,0.00,WUHU216WMR100,2013-06-22 03:19:00,
2013-06-21 23:24:00,68.5,57.7,29.15,WSW,247,0.0,0.0,68,0.00,,,0.00,WUHU216WMR100,2013-06-22 03:24:00,
2013-06-21 23:29:00,68.5,58.1,29.15,WSW,247,0.0,0.0,69,0.00,,,0.00,WUHU216WMR100,2013-06-22 03:29:00,
2013-06-21 23:34:00,68.5,58.5,29.15,WSW,247,0.0,0.0,70,0.00,,,0.00,WUHU216WMR100,2013-06-22 03:34:00,
2013-06-21 23:39:00,68.4,58.4,29.15,WSW,247,0.0,0.0,70,0.00,,,0.00,WUHU216WMR100,2013-06-22 03:39:00,
2013-06-21 23:44:00,68.2,58.2,29.15,WSW,247,0.0,0.0,70,0.00,,,0.00,WUHU216WMR100,2013-06-22 03:44:00,
2013-06-21 23:49:00,67.8,58.2,29.15,WSW,247,0.0,0.0,71,0.00,,,0.00,WUHU216WMR100,2013-06-22 03:49:00,
2013-06-21 23:54:00,67.6,57.6,29.15,WSW,247,0.0,0.0,70,0.00,,,0.00,WUHU216WMR100,2013-06-22 03:54:00,
2013-06-21 23:59:00,67.5,58.3,29.15,WSW,247,0.0,0.0,72,0.00,,,0.00,WUHU216WMR100,2013-06-22 03:59:00,